Location: Cutler
(25.6150°N, 80.3110°W)
Time: 16:37:48
(UTC-04:00)

ISS - Visible Passes

Search period start: 20 July 2018 00:00
Search period end: 30 July 2018 00:00
Orbit: 402 x 408 km, 51.6° (Epoch: 20 July)

Date Brightness Start Highest point End Pass type
(mag) Time Alt. Az. Time Alt. Az. Time Alt. Az.
20 Jul -2.2 05:43:40 10° NNW 05:46:47 39° NE 05:49:53 10° ESE visible
20 Jul -3.9 20:41:03 10° SSW 20:44:16 62° SE 20:47:29 10° NE visible
21 Jul -0.8 04:52:11 10° N 04:54:35 18° NE 04:56:58 10° E visible
21 Jul -0.6 21:26:27 10° W 21:28:40 17° NW 21:30:54 10° N visible
22 Jul -3.8 05:35:44 10° NW 05:38:58 56° SW 05:42:10 10° SSE visible
22 Jul -1.9 20:33:25 10° WSW 20:36:26 35° NW 20:39:28 10° NNE visible
23 Jul -1.5 04:49:08 18° ESE 04:49:08 18° ESE 04:50:04 10° SE visible
